sat.trackr.live / text

‹ back to catalog

SHERPA-LTC2

NORAD 53754 · 2022-107BG

PAYLOAD ACTIVE UNKNOWN

§ Identity

Operator
Country
US
Launch date
2022-09-05
Launch site
AFETR
Launch vehicle
Mass (kg)
RCS (m²)

External: N2YO · Heavens-Above · Gunter

§ Orbital elements

Epoch: 2026-05-25T04:46:33.000384Z

Period
98.00 min
Inclination
53.2342°
Eccentricity
0.0396785
Mean motion
14.69329473 rev/d
Perigee alt
383.8 km
Apogee alt
942.6 km
Semi-major
7,041.3 km
B*
4.0234e-4
RAAN
317.6278°
Arg perigee
161.7206°
Mean anomaly
199.8507°
Rev number
19,916

§ Raw data

SHERPA-LTC21 53754U 22107BG  26145.19899306  .00008025  00000+0  40234-3 0  99992 53754  53.2342 317.6278 0396785 161.7206 199.8507 14.69329473199163

JSON: /api/v1/satellites/53754 · /tle

For live sub-satellite position, see the globe view (requires WebGL).

§ Visibility from observer

Set your observer location to see the next 7 days of passes ≥ 10°. The values pass through the URL so the page stays shareable.

No JS? Fill the form by hand. The geolocation button needs JavaScript.

§ Radio — SatNOGS DB

ModeDescriptionDownlinkUplink
FM UHF STRF 400.480 MHz
FM UHF Unknown 400.520 MHz

2 transmitters · refreshed weekly from db.satnogs.org